This is the latest recevied weather packets stored in our database for station/object W9WRP. If no packets are shown the sender has not sent any weather packets the latest 10 day(s).
| Time | Temp. | Humidity | Pressure | Rain* | Wind** | Luminosity | Snow |
|---|---|---|---|---|---|---|---|
| 1787461370 | 37.22° C | 18% | 1014 hPa | 0 mm | - | 0 W/m² | - |
| 1787461065 | 35.56° C | 18% | 1013.9 hPa | 0 mm | - | 0 W/m² | - |
| 1787460760 | 36.11° C | 18% | 1013.9 hPa | 0 mm | - | 0 W/m² | - |
| 1787460457 | 35.56° C | 19% | 1013.5 hPa | 0 mm | - | 0 W/m² | - |
| 1787460153 | 35.56° C | 19% | 1013.5 hPa | 0 mm | - | 0 W/m² | - |
| 1787459851 | 36.11° C | 19% | 1013.7 hPa | 0 mm | - | 0 W/m² | - |
| 1787459547 | 36.67° C | 19% | 1013.5 hPa | 0 mm | - | 0 W/m² | - |
| 1787459245 | 36.67° C | 18% | 1013.4 hPa | 0 mm | - | 0 W/m² | - |
| 1787458940 | 36.67° C | 19% | 1013.4 hPa | 0 mm | - | 0 W/m² | - |
| 1787458639 | 36.67° C | 19% | 1013.4 hPa | 0 mm | - | 0 W/m² | - |
| 1787458333 | 36.11° C | 19% | 1013.5 hPa | 0 mm | - | 0 W/m² | - |
| 1787458029 | 36.11° C | 19% | 1013.5 hPa | 0 mm | - | 0 W/m² | - |
| 1787457726 | 36.11° C | 19% | 1013.6 hPa | 0 mm | - | 0 W/m² | - |
| 1787457421 | 36.11° C | 19% | 1013.5 hPa | 0 mm | - | 0 W/m² | - |
| 1787457115 | 36.11° C | 18% | 1013.3 hPa | 0 mm | - | 0 W/m² | - |
| 1787456811 | 36.11° C | 18% | 1013.3 hPa | 0 mm | - | 0 W/m² | - |
| 1787456506 | 36.11° C | 18% | 1013.4 hPa | 0 mm | - | 0 W/m² | - |
| 1787456202 | 36.11° C | 18% | 1013.2 hPa | 0 mm | - | 0 W/m² | - |
| 1787455897 | 36.11° C | 18% | 1013.2 hPa | 0 mm | - | 0 W/m² | - |
| 1787455597 | 36.11° C | 18% | 1013.1 hPa | 0 mm | - | 0 W/m² | - |
| 1787455293 | 36.67° C | 18% | 1013.3 hPa | 0 mm | - | 0 W/m² | - |
| 1787454988 | 36.67° C | 18% | 1013.2 hPa | 0 mm | - | 0 W/m² | - |
| 1787454684 | 36.67° C | 17% | 1013.2 hPa | 0 mm | - | 0 W/m² | - |
| 1787454380 | 37.22° C | 17% | 1012.8 hPa | 0 mm | - | 0 W/m² | - |
| 1787454079 | 37.22° C | 17% | 1012.9 hPa | 0 mm | - | 0 W/m² | - |
* Rain latest hour (hover to see other rain measurements)
** Current wind speed in m/s (hover to see current wind gust speed)